Latest Coastal Weather Observations for Cato Island

IDQ60701

Issued at 7:21 am EST Saturday 28 February 2015 (issued every 10 minutes, with the page automatically refreshed every 10 minutes)

About coastal observations | Map of coastal stations | Coastal observations for QLD | Marine services | Other Formats
Station Details ID: 200601 Name: CATO ISLAND Lat: -23.25 Lon: 155.54 Height: 6.3 m
Data from the previous 72 hours. | See also: Recent months for locations in Queensland
Date/Time
EST
Temp

°C
Wind Pressure Rain
since 9am
mm
Weather Cloud Vis
km
Sea
Height
m
Swell
Dir
 
Speed
knots
Gust
knots
hPa Trend Height
m
Period
s
Dir
28/07:00am 26.6 SE 10 12 1008.1 - - - - - - - - -
28/06:30am 25.5 SSE 7 13 1008.0 - - - - - - - - -
28/06:00am 26.0 SSE 10 11 1007.8 - - - - - - - - -
28/05:30am 25.8 SSE 6 11 1007.3 - - - - - - - - -
28/05:00am 25.9 SE 11 12 1007.1 - - - - - - - - -
28/04:30am 25.8 SE 10 11 1006.7 - - - - - - - - -
28/04:00am 26.1 ESE 11 13 1006.6 - - - - - - - - -
28/03:30am 26.0 ESE 10 11 1006.3 - - - - - - - - -
28/03:00am 25.9 ESE 11 13 1006.5 - - - - - - - - -
28/02:30am 26.0 ESE 12 13 1006.4 - - - - - - - - -
28/02:00am 25.8 ESE 12 13 1006.5 - - - - - - - - -
28/01:30am 26.0 ESE 12 15 1006.7 - - - - - - - - -
28/01:00am 26.1 ESE 13 15 1007.2 - - - - - - - - -
28/12:30am 26.1 ESE 14 16 1007.5 - - - - - - - - -
28/12:00am 26.2 ESE 15 17 1007.8 - - - - - - - - -
 
Date/Time
EST
Temp

°C
Wind Pressure Rain
since 9am
mm
Weather Cloud Vis
km
Sea
Height
m
Swell
Dir
 
Speed
knots
Gust
knots
hPa Trend Height
m
Period
s
Dir
27/11:30pm 26.2 ESE 16 17 1008.0 - - - - - - - - -
27/11:00pm 26.2 ESE 14 18 1008.2 - - - - - - - - -
27/10:30pm 26.4 ESE 17 20 1008.0 - - - - - - - - -
27/10:00pm 26.3 ESE 17 19 1008.1 - - - - - - - - -
27/09:30pm 26.3 SE 17 20 1007.9 - - - - - - - - -
27/09:00pm 26.2 SE 17 20 1007.9 - - - - - - - - -
27/08:30pm 26.3 ESE 17 19 1007.6 - - - - - - - - -
27/08:00pm 26.3 ESE 17 19 1007.4 - - - - - - - - -
27/07:30pm 26.3 SE 18 20 1007.0 - - - - - - - - -
27/07:00pm 26.3 SE 17 19 1006.7 - - - - - - - - -
27/06:30pm 26.3 SE 17 21 1006.4 - - - - - - - - -
27/06:00pm 26.4 SE 18 20 1006.2 - - - - - - - - -
27/05:30pm 26.6 SE 18 20 1005.9 - - - - - - - - -
27/05:00pm 26.6 SE 18 20 1005.8 - - - - - - - - -
27/04:30pm 26.6 SE 18 20 1005.5 - - - - - - - - -
27/04:00pm 26.8 SE 18 20 1005.3 - - - - - - - - -
27/03:30pm 26.8 ESE 15 17 1005.3 - - - - - - - - -
27/03:00pm 26.9 SE 18 20 1005.3 - - - - - - - - -
27/02:30pm 26.9 SE 16 19 1005.4 - - - - - - - - -
27/02:00pm 27.0 SE 17 20 1005.5 - - - - - - - - -
27/01:30pm 27.0 SSE 15 19 1005.7 - - - - - - - - -
27/01:00pm 26.5 SE 16 21 1006.0 - - - - - - - - -
27/12:30pm 27.1 SSE 17 19 1006.1 - - - - - - - - -
27/12:00pm 27.2 SE 16 18 1006.6 - - - - - - - - -
27/11:30am 27.1 SE 16 18 1006.6 - - - - - - - - -
27/11:00am 27.2 SE 16 19 1007.0 - - - - - - - - -
27/10:30am 27.2 SE 15 18 1007.1 - - - - - - - - -
27/10:00am 27.1 SE 16 17 1007.4 - - - - - - - - -
27/09:30am 26.8 SE 16 19 1007.1 - - - - - - - - -
27/09:00am 26.8 SE 15 17 1007.2 - - - - - - - - -
27/08:30am 26.7 SE 15 17 1007.1 - - - - - - - - -
27/08:00am 26.9 SE 16 18 1006.8 - - - - - - - - -
27/07:30am 26.7 SE 15 17 1006.3 - - - - - - - - -
27/07:00am 26.6 SE 16 18 1006.3 - - - - - - - - -
27/06:30am 26.5 SE 15 17 1005.9 - - - - - - - - -
27/06:00am 26.0 SE 14 16 1005.6 - - - - - - - - -
27/05:30am 25.9 ESE 14 16 1005.5 - - - - - - - - -
27/05:00am 25.9 ESE 15 17 1005.2 - - - - - - - - -
27/04:30am 25.7 SE 13 15 1005.0 - - - - - - - - -
27/04:00am 25.7 ESE 15 17 1004.9 - - - - - - - - -
27/03:30am 25.8 ESE 16 19 1004.6 - - - - - - - - -
27/03:00am 25.8 SE 18 20 1004.6 - - - - - - - - -
27/02:30am 25.8 SE 17 20 1004.4 - - - - - - - - -
27/02:00am 25.7 SE 17 19 1004.8 - - - - - - - - -
27/01:30am 25.8 SE 17 19 1004.9 - - - - - - - - -
27/01:00am 25.9 SE 17 20 1005.4 - - - - - - - - -
27/12:30am 25.8 SE 17 19 1005.6 - - - - - - - - -
27/12:00am 25.8 SE 18 20 1006.0 - - - - - - - - -
 
Date/Time
EST
Temp

°C
Wind Pressure Rain
since 9am
mm
Weather Cloud Vis
km
Sea
Height
m
Swell
Dir
 
Speed
knots
Gust
knots
hPa Trend Height
m
Period
s
Dir
26/11:30pm 26.0 SE 17 19 1006.1 - - - - - - - - -
26/11:00pm 26.0 SE 19 21 1006.6 - - - - - - - - -
26/10:30pm 26.1 SE 19 23 1006.6 - - - - - - - - -
26/10:00pm 26.1 SE 19 22 1006.9 - - - - - - - - -
26/09:30pm 26.1 SE 19 22 1006.9 - - - - - - - - -
26/09:00pm 26.1 SE 20 23 1006.9 - - - - - - - - -
26/08:30pm 26.1 SE 20 23 1006.7 - - - - - - - - -
26/08:00pm 26.1 SE 19 23 1006.6 - - - - - - - - -
26/07:30pm 26.2 SSE 18 21 1006.4 - - - - - - - - -
26/07:00pm 26.0 SSE 19 23 1006.0 - - - - - - - - -
26/06:30pm 26.2 SSE 20 23 1005.5 - - - - - - - - -
26/06:00pm 26.2 SSE 19 23 1005.3 - - - - - - - - -
26/05:30pm 26.3 SSE 19 22 1004.8 - - - - - - - - -
26/05:00pm 26.2 SSE 19 21 1004.7 - - - - - - - - -
26/04:30pm 26.3 SSE 19 21 1004.5 - - - - - - - - -
26/04:00pm 26.6 SSE 20 23 1004.4 - - - - - - - - -
26/03:30pm 26.5 SSE 21 24 1004.3 - - - - - - - - -
26/03:00pm 26.7 SSE 19 22 1004.5 - - - - - - - - -
26/02:30pm 26.7 SSE 19 22 1004.5 - - - - - - - - -
26/02:00pm 26.6 SSE 19 21 1004.7 - - - - - - - - -
26/01:30pm 26.9 SSE 18 22 1004.8 - - - - - - - - -
26/01:00pm 26.8 SSE 19 21 1005.4 - - - - - - - - -
26/12:30pm 26.8 SSE 19 21 1005.5 - - - - - - - - -
26/12:00pm 27.0 SSE 18 22 1005.9 - - - - - - - - -
26/11:30am 26.7 SSE 19 21 1005.9 - - - - - - - - -
26/11:00am 26.9 SE 17 20 1006.3 - - - - - - - - -
26/10:30am 26.8 SE 18 20 1006.3 - - - - - - - - -
26/10:00am 26.8 SE 17 19 1006.4 - - - - - - - - -
26/09:30am 26.6 SE 17 20 1006.3 - - - - - - - - -
26/09:00am 26.5 SE 18 21 1006.3 - - - - - - - - -
26/08:30am 26.3 SE 18 20 1006.3 - - - - - - - - -
26/08:00am 26.3 SE 18 22 1006.2 - - - - - - - - -
26/07:30am 26.0 SE 20 23 1005.9 - - - - - - - - -
26/07:00am 25.8 SE 19 22 1005.8 - - - - - - - - -
26/06:30am 26.1 SE 20 23 1005.4 - - - - - - - - -
26/06:00am 26.0 SE 20 23 1005.3 - - - - - - - - -
26/05:30am 26.0 SE 20 22 1004.9 - - - - - - - - -
26/05:00am 25.9 SE 21 23 1004.8 - - - - - - - - -
26/04:30am 26.0 SE 20 22 1004.9 - - - - - - - - -
26/04:00am 25.9 SE 20 23 1005.0 - - - - - - - - -
26/03:30am 25.8 SE 20 23 1004.7 - - - - - - - - -
26/03:00am 26.0 SE 19 22 1005.0 - - - - - - - - -
26/02:30am 25.9 SE 21 24 1005.1 - - - - - - - - -
26/02:00am 26.1 SE 21 24 1005.5 - - - - - - - - -
26/01:30am 26.0 SE 23 25 1005.8 - - - - - - - - -
26/01:00am 26.2 SE 22 26 1006.1 - - - - - - - - -
26/12:30am 26.0 SE 24 27 1006.0 - - - - - - - - -
26/12:00am 26.2 SE 23 27 1006.4 - - - - - - - - -
 
Date/Time
EST
Temp

°C
Wind Pressure Rain
since 9am
mm
Weather Cloud Vis
km
Sea
Height
m
Swell
Dir
 
Speed
knots
Gust
knots
hPa Trend Height
m
Period
s
Dir
25/11:30pm 26.1 SE 20 25 1006.6 - - - - - - - - -
25/11:00pm 26.2 SE 22 26 1006.9 - - - - - - - - -
25/10:30pm 26.2 SE 24 28 1006.9 - - - - - - - - -
25/10:00pm 26.3 SE 25 29 1007.2 - - - - - - - - -
25/09:30pm 26.3 SE 25 29 1007.1 - - - - - - - - -
25/09:00pm 26.3 SE 25 29 1007.0 - - - - - - - - -
25/08:30pm 26.4 SE 27 32 1006.5 - - - - - - - - -
25/08:00pm 26.3 SE 28 33 1006.4 - - - - - - - - -
25/07:30pm 26.5 SE 25 31 1006.1 - - - - - - - - -
25/07:00pm 26.3 SE 28 32 1005.8 - - - - - - - - -
25/06:30pm 26.4 SE 28 32 1005.3 - - - - - - - - -
25/06:00pm 26.5 SE 27 32 1005.1 - - - - - - - - -
25/05:30pm 26.6 SE 29 33 1004.7 - - - - - - - - -
25/05:00pm 26.5 SE 27 31 1004.7 - - - - - - - - -
25/04:30pm 26.7 SE 27 32 1004.4 - - - - - - - - -
25/04:00pm 26.8 SE 27 31 1004.3 - - - - - - - - -
25/03:30pm 26.7 SSE 26 31 1004.2 - - - - - - - - -
25/03:00pm 26.6 SSE 27 31 1004.1 - - - - - - - - -
25/02:30pm 26.8 SSE 28 31 1004.2 - - - - - - - - -
25/02:00pm 26.8 SSE 27 31 1004.6 - - - - - - - - -
25/01:30pm 26.8 SE 24 29 1004.6 - - - - - - - - -
25/01:00pm 26.5 SE 24 29 1004.9 - - - - - - - - -
25/12:30pm 27.0 SE 24 28 1004.9 - - - - - - - - -
25/12:00pm 26.9 SE 23 27 1005.3 - - - - - - - - -
25/11:30am 27.0 SE 23 26 1005.4 - - - - - - - - -
25/11:00am 27.0 SE 23 29 1005.6 - - - - - - - - -
25/10:30am 26.9 SE 26 29 1005.7 - - - - - - - - -
25/10:00am 26.3 SE 23 30 1005.6 - - - - - - - - -
25/09:38am 26.0 SE 23 33 1005.7 - - - - - - - - -
25/09:30am 26.8 SE 22 27 1005.7 - - - - - - - - -
25/09:00am 26.6 SE 23 27 1005.8 - - - - - - - - -
25/08:30am 26.2 SE 24 28 1005.5 - - - - - - - - -
25/08:00am 26.2 SE 24 28 1005.4 - - - - - - - - -
25/07:30am 26.1 SE 26 29 1005.0 - - - - - - - - -

Other Formats:

Comma delimited format used in spreadsheet applications
http://www.bom.gov.au/fwo/IDQ60701/IDQ60701.94394.axf

JavaScript Object Notation format (JSON) in row-major order
http://www.bom.gov.au/fwo/IDQ60701/IDQ60701.94394.json